This is the latest recevied weather packets stored in our database for station/object W4MJZ-1. If no packets are shown the sender has not sent any weather packets the latest 10 day(s).
| Time | Temp. | Humidity | Pressure | Rain* | Wind** | Luminosity | Snow |
|---|---|---|---|---|---|---|---|
| 1777493839 | 27.22° C | 12% | 1022.6 hPa | 0 mm | - | - | - |
| 1777493539 | 27.22° C | 12% | 1022.6 hPa | 0 mm | - | - | - |
| 1777493241 | 27.22° C | 12% | 1022.6 hPa | 0 mm | - | - | - |
| 1777492939 | 27.22° C | 12% | 1022.9 hPa | 0 mm | - | - | - |
| 1777492639 | 27.22° C | 12% | 1022.6 hPa | 0 mm | - | - | - |
| 1777492342 | 27.22° C | 13% | 1022.9 hPa | 0 mm | - | - | - |
| 1777492041 | 27.22° C | 13% | 1022.9 hPa | 0 mm | - | - | - |
| 1777491739 | 26.67° C | 13% | 1023.3 hPa | 0 mm | - | - | - |
| 1777491439 | 26.67° C | 13% | 1023.3 hPa | 0 mm | - | - | - |
| 1777491139 | 26.67° C | 13% | 1023.3 hPa | 0 mm | - | - | - |
| 1777490841 | 26.11° C | 12% | 1023.3 hPa | 0 mm | - | - | - |
| 1777490540 | 26.11° C | 13% | 1023.3 hPa | 0 mm | - | - | - |
| 1777490240 | 26.11° C | 14% | 1023.3 hPa | 0 mm | - | - | - |
| 1777489940 | 26.11° C | 13% | 1023.7 hPa | 0 mm | - | - | - |
| 1777489638 | 25° C | 14% | 1023.7 hPa | 0 mm | - | - | - |
| 1777489339 | 24.44° C | 15% | 1023.7 hPa | 0 mm | - | - | - |
| 1777489039 | 25° C | 15% | 1023.7 hPa | 0 mm | - | - | - |
| 1777488739 | 25° C | 15% | 1023.7 hPa | 0 mm | - | - | - |
| 1777488443 | 24.44° C | 15% | 1023.7 hPa | 0 mm | - | - | - |
| 1777488139 | 24.44° C | 15% | 1023.7 hPa | 0 mm | - | - | - |
| 1777487839 | 25.56° C | 15% | 1024.1 hPa | 0 mm | - | - | - |
| 1777487538 | 25.56° C | 15% | 1023.7 hPa | 0 mm | - | - | - |
| 1777487239 | 25° C | 16% | 1023.7 hPa | 0 mm | - | - | - |
| 1777486938 | 25° C | 16% | 1024.1 hPa | 0 mm | - | - | - |
| 1777486639 | 25° C | 16% | 1024.1 hPa | 0 mm | - | - | - |
* Rain latest hour (hover to see other rain measurements)
** Current wind speed in m/s (hover to see current wind gust speed)